QPF
0.00 0.00 0.00 0.00 0.00 0.00 0.00 0.00 0.00 0.00 0.00 0.00 0.00 0.00 0.00 0.00 0.00 0.00 0.00 0.00 0.00 0.00 0.00 0.00 0.00 0.00 0.00 0.00 0.00 0.00 0.00 0.00 0.00 0.00 0.01 0.03 0.05 0.07 0.08 0.08 0.05 0.09 0.05 0.04
0.00 0.00 0.00 0.01 0.00 0.00 0.00 0.00 0.00 0.00 0.00 0.00 0.00 0.00 0.00 0.00 0.00 0.00 0.00 0.00 0.00 0.00 0.00 0.00 0.00 0.00 0.00 0.00 0.00 0.00 0.00 0.00 0.01 0.01 0.02 0.03 0.04 0.04 0.05 0.05 0.03 0.02 0.02 0.02
0.00 0.00 0.00 0.02 0.00 0.00 0.00 0.00 0.00 0.00 0.00 0.00 0.00 0.00 0.00 0.00 0.00 0.00 0.00 0.00 0.00 0.00 0.00 0.00 0.00 0.00 0.00 0.00 0.00 0.00 0.00 0.00 0.01 0.01 0.01 0.01 0.02 0.02 0.02 0.02 0.02 0.03 0.03 0.03
0.00 0.00 0.02 0.03 0.00 0.00 0.00 0.00 0.00 0.00 0.00 0.00 0.00 0.00 0.00 0.00 0.00 0.00 0.00 0.00 0.00 0.00 0.00 0.00 0.00 0.00 0.00 0.00 0.00 0.00 0.01 0.01 0.01 0.01 0.00 0.00 0.00 0.01 0.02 0.02 0.01 0.01 0.02 0.03
0.03 0.00 0.00 0.00 0.00 0.00 0.00 0.00 0.00 0.00 0.00 0.00 0.00 0.00 0.00 0.00 0.00 0.00 0.00 0.00 0.00 0.00 0.00 0.00 0.00 0.00 0.00 0.00 0.00 0.00 0.00 0.00 0.00 0.00 0.00 0.00 0.01 0.01 0.01 0.01 0.02 0.01 0.01 0.01
0.12 0.04 0.00 0.00 0.00 0.00 0.00 0.00 0.00 0.00 0.00 0.00 0.00 0.00 0.00 0.00 0.00 0.00 0.00 0.00 0.00 0.00 0.00 0.00 0.00 0.00 0.00 0.00 0.00 0.00 0.00 0.00 0.00 0.00 0.00 0.02 0.02 0.02 0.01 0.01 0.01 0.00 0.00 0.00
0.08 0.07 0.00 0.00 0.00 0.00 0.05 0.01 0.00 0.00 0.00 0.00 0.00 0.00 0.00 0.00 0.00 0.00 0.00 0.00 0.00 0.00 0.00 0.00 0.00 0.00 0.00 0.00 0.00 0.00 0.00 0.00 0.00 0.01 0.01 0.02 0.01 0.01 0.00 0.00 0.00 0.00 0.00 0.00
0.15 0.05 0.00 0.00 0.01 0.00 0.01 0.00 0.00 0.00 0.00 0.00 0.00 0.00 0.00 0.00 0.00 0.00 0.00 0.00 0.00 0.00 0.00 0.00 0.00 0.00 0.00 0.00 0.00 0.00 0.00 0.00 0.01 0.01 0.01 0.01 0.01 0.00 0.00 0.00 0.00 0.00 0.00 0.00
0.17 0.10 0.01 0.00 0.01 0.02 0.00 0.00 0.00 0.00 0.00 0.00 0.00 0.00 0.00 0.00 0.00 0.00 0.00 0.00 0.00 0.00 0.00 0.00 0.00 0.00 0.00 0.00 0.00 0.00 0.00 0.00 0.00 0.00 0.00 0.00 0.00 0.00 0.00 0.00 0.00 0.00 0.00 0.00
0.02 0.00 0.00 0.00 0.00 0.00 0.00 0.00 0.00 0.00 0.00 0.00 0.00 0.00 0.00 0.00 0.00 0.00 0.00 0.00 0.00 0.00 0.00 0.00 0.00 0.00 0.00 0.00 0.00 0.00 0.00 0.00 0.00 0.00 0.00 0.00 0.00 0.00 0.00 0.00 0.00 0.00 0.00 0.00
0.00 0.00 0.00 0.00 0.00 0.00 0.00 0.00 0.00 0.00 0.00 0.00 0.00 0.00 0.00 0.00 0.00 0.00 0.00 0.00 0.00 0.00 0.00 0.00 0.00 0.00 0.00 0.00 0.00 0.00 0.00 0.00 0.00 0.00 0.00 0.00 0.00 0.00 0.00 0.00 0.00 0.00 0.00 0.00
0.00 0.00 0.00 0.00 0.00 0.00 0.00 0.00 0.00 0.00 0.00 0.00 0.00 0.00 0.00 0.00 0.00 0.00 0.00 0.00 0.00 0.00 0.00 0.00 0.00 0.00 0.00 0.00 0.00 0.00 0.00 0.00 0.00 0.00 0.00 0.00 0.00 0.01 0.01 0.00 0.00 0.00 0.00 0.00
0.00 0.00 0.00 0.00 0.00 0.00 0.00 0.00 0.00 0.00 0.00 0.00 0.00 0.00 0.00 0.00 0.00 0.00 0.00 0.00 0.00 0.00 0.00 0.00 0.00 0.00 0.00 0.00 0.00 0.00 0.00 0.01 0.03 0.04 0.04 0.03 0.03 0.03 0.05 0.05 0.03 0.02 0.01 0.01
0.00 0.00 0.00 0.00 0.01 0.01 0.01 0.01 0.01 0.00 0.00 0.00 0.00 0.00 0.00 0.00 0.00 0.01 0.00 0.00 0.00 0.00 0.00 0.00 0.00 0.00 0.00 0.00 0.01 0.02 0.02 0.03 0.02 0.02 0.01 0.02 0.04 0.05 0.04 0.04 0.04 0.03 0.03 0.03
0.00 0.00 0.00 0.00 0.01 0.01 0.01 0.01 0.01 0.00 0.00 0.00 0.00 0.00 0.00 0.00 0.00 0.00 0.00 0.00 0.00 0.00 0.00 0.00 0.00 0.03 0.03 0.03 0.03 0.03 0.02 0.02 0.02 0.02 0.02 0.02 0.02 0.02 0.01 0.01 0.00 0.00 0.00 0.00
0.00 0.00 0.01 0.02 0.02 0.02 0.02 0.01 0.00 0.00 0.00 0.00 0.00 0.00 0.00 0.00 0.00 0.00 0.00 0.00 0.00 0.01 0.02 0.03 0.04 0.06 0.03 0.02 0.01 0.01 0.02 0.02 0.02 0.02 0.01 0.01 0.01 0.01 0.00 0.00 0.00 0.00 0.00 0.00
0.00 0.00 0.00 0.01 0.02 0.02 0.01 0.00 0.00 0.00 0.00 0.00 0.00 0.00 0.00 0.00 0.00 0.00 0.00 0.01 0.03 0.05 0.05 0.03 0.03 0.03 0.01 0.01 0.01 0.01 0.00 0.00 0.00 0.00 0.00 0.00 0.00 0.00 0.00 0.00 0.00 0.00 0.00 0.00
0.00 0.00 0.00 0.00 0.00 0.00 0.00 0.00 0.00 0.00 0.00 0.00 0.00 0.00 0.00 0.00 0.00 0.02 0.05 0.06 0.04 0.03 0.03 0.02 0.02 0.00 0.00 0.00 0.00 0.00 0.00 0.00 0.00 0.00 0.00 0.00 0.00 0.00 0.00 0.00 0.00 0.00 0.00 0.01
0.01 0.00 0.00 0.00 0.00 0.00 0.00 0.00 0.00 0.00 0.00 0.00 0.00 0.00 0.00 0.03 0.05 0.06 0.05 0.03 0.02 0.01 0.01 0.00 0.00 0.00 0.00 0.00 0.00 0.00 0.00 0.00 0.00 0.00 0.00 0.00 0.00 0.00 0.00 0.00 0.00 0.00 0.00 0.00
0.02 0.00 0.00 0.00 0.00 0.00 0.00 0.00 0.00 0.00 0.00 0.00 0.00 0.01 0.03 0.06 0.05 0.04 0.02 0.03 0.02 0.00 0.00 0.00 0.00 0.00 0.00 0.00 0.00 0.00 0.00 0.00 0.00 0.00 0.00 0.00 0.00 0.00 0.00 0.00 0.00 0.00 0.00 0.00
0.24 0.09 0.01 0.00 0.01 0.01 0.01 0.01 0.02 0.04 0.06 0.05 0.02 0.03 0.03 0.05 0.04 0.03 0.01 0.01 0.00 0.00 0.00 0.00 0.00 0.00 0.00 0.00 0.00 0.00 0.00 0.00 0.00 0.00 0.00 0.00 0.00 0.00 0.00 0.00 0.00 0.00 0.00 0.00
0.20 0.20 0.04 0.01 0.02 0.06 0.08 0.09 0.07 0.08 0.07 0.07 0.05 0.04 0.04 0.05 0.03 0.02 0.01 0.00 0.00 0.00 0.00 0.00 0.00 0.00 0.00 0.00 0.00 0.00 0.00 0.00 0.00 0.00 0.00 0.00 0.00 0.00 0.00 0.00 0.00 0.00 0.00 0.00
0.03 0.03 0.02 0.03 0.04 0.08 0.12 0.13 0.12 0.09 0.08 0.07 0.05 0.05 0.03 0.02 0.01 0.00 0.00 0.00 0.00 0.00 0.00 0.00 0.00 0.00 0.00 0.00 0.00 0.00 0.00 0.00 0.00 0.00 0.00 0.00 0.00 0.00 0.00 0.00 0.00 0.00 0.00 0.00
0.05 0.05 0.07 0.09 0.09 0.08 0.10 0.11 0.09 0.08 0.06 0.05 0.03 0.01 0.00 0.00 0.00 0.00 0.00 0.00 0.00 0.00 0.00 0.00 0.00 0.00 0.00 0.00 0.00 0.00 0.00 0.00 0.00 0.00 0.00 0.00 0.00 0.00 0.00 0.00 0.00 0.00 0.00 0.00
0.06 0.07 0.07 0.07 0.07 0.08 0.07 0.08 0.06 0.05 0.04 0.02 0.00 0.00 0.00 0.00 0.00 0.01 0.00 0.00 0.00 0.00 0.00 0.00 0.00 0.00 0.00 0.00 0.00 0.00 0.00 0.00 0.00 0.00 0.00 0.00 0.00 0.00 0.00 0.00 0.00 0.00 0.00 0.00
0.05 0.05 0.07 0.07 0.06 0.06 0.06 0.05 0.03 0.02 0.01 0.00 0.00 0.00 0.00 0.00 0.00 0.00 0.00 0.00 0.00 0.00 0.00 0.00 0.00 0.00 0.00 0.00 0.00 0.00 0.00 0.00 0.00 0.00 0.00 0.00 0.00 0.00 0.00 0.00 0.00 0.00 0.00 0.00
0.06 0.06 0.05 0.05 0.05 0.03 0.02 0.01 0.00 0.00 0.00 0.00 0.00 0.00 0.00 0.00 0.00 0.00 0.00 0.00 0.00 0.00 0.00 0.00 0.00 0.00 0.00 0.00 0.00 0.00 0.00 0.00 0.00 0.00 0.00 0.00 0.00 0.00 0.00 0.00 0.00 0.00 0.00 0.00
MSLP
1004.85 1003.97 1003.00 1002.37 1002.18 1002.31 1002.63 1002.79 1002.35 1002.04 1001.63 1000.92 1000.50 1000.27 1000.35 1000.30 1000.55 1000.97 1001.54 1001.98 1002.24 1002.51 1002.83 1003.33 1003.83 1004.07 1004.45 1004.71 1005.17 1005.72 1006.59 1007.36 1007.91 1008.52 1009.04 1009.52 1009.98 1010.39 1010.64 1011.09 1011.53 1012.02 1012.59 1013.40
1004.67 1003.35 1002.77 1002.18 1001.89 1001.69 1001.68 1002.01 1001.28 1001.21 1000.09 999.84 999.44 999.52 999.90 999.95 1000.26 1000.52 1000.63 1000.83 1001.65 1001.93 1002.24 1002.74 1003.17 1003.62 1004.27 1005.07 1005.82 1006.25 1006.93 1007.72 1008.30 1008.83 1009.39 1009.87 1010.43 1010.94 1011.21 1011.58 1011.88 1012.37 1012.94 1013.44
1005.51 1003.92 1003.10 1002.67 1000.80 1000.83 1000.78 1001.39 1001.69 1000.60 999.73 999.06 999.24 999.27 999.40 999.29 999.62 999.94 1000.10 1000.36 1000.97 1001.47 1001.75 1002.30 1003.27 1004.07 1005.00 1005.45 1005.88 1006.68 1007.44 1008.02 1008.57 1009.20 1009.64 1010.02 1010.38 1010.92 1011.28 1011.70 1012.10 1012.68 1013.24 1013.69
1006.69 1004.73 1003.83 1001.38 1000.85 1000.86 1000.68 1000.41 1000.59 1000.25 999.18 998.53 998.26 998.17 998.29 998.43 998.78 999.19 999.87 1000.23 1000.62 1001.32 1002.41 1003.30 1004.06 1005.03 1005.77 1006.25 1006.77 1007.24 1007.83 1008.41 1008.91 1009.39 1009.88 1010.29 1010.71 1011.13 1011.63 1012.14 1012.52 1012.99 1013.47 1014.04
1007.24 1005.40 1003.53 1001.79 1000.77 1000.62 1000.67 999.59 999.54 999.36 998.19 997.87 997.79 998.10 997.91 997.71 998.17 998.36 999.04 999.63 1000.64 1001.63 1002.83 1003.69 1004.46 1005.23 1005.96 1006.68 1007.24 1007.73 1008.30 1008.84 1009.29 1009.76 1010.20 1010.60 1011.13 1011.62 1012.08 1012.48 1013.03 1013.51 1014.12 1014.83
1007.79 1006.08 1003.73 1001.61 1000.01 999.41 999.98 999.60 998.13 997.69 997.73 998.21 997.90 998.22 997.92 997.54 998.14 998.57 999.25 1000.09 1001.21 1002.14 1003.04 1004.01 1004.85 1005.41 1006.08 1006.90 1007.54 1008.21 1008.80 1009.30 1009.72 1010.23 1010.72 1011.32 1011.78 1012.13 1012.49 1012.97 1013.63 1014.47 1015.43 1016.21
1007.46 1006.06 1003.49 1001.19 1000.06 999.97 1001.11 999.80 997.92 997.51 997.56 997.83 998.11 997.54 997.39 997.81 998.39 999.27 999.73 1000.71 1001.78 1002.65 1003.32 1004.36 1005.27 1005.85 1006.61 1007.40 1008.12 1008.77 1009.43 1009.92 1010.30 1010.71 1011.19 1011.70 1012.24 1012.66 1013.30 1013.98 1014.92 1015.93 1016.68 1017.52
1006.02 1005.40 1003.80 1001.54 1000.32 1000.64 1000.57 999.47 998.60 998.05 997.79 997.80 997.56 997.48 997.62 998.38 999.32 1000.16 1000.93 1001.72 1002.43 1003.20 1004.48 1005.45 1006.07 1006.57 1007.37 1008.09 1008.75 1009.25 1009.91 1010.60 1011.17 1011.49 1011.90 1012.46 1013.01 1013.73 1014.35 1014.98 1015.97 1016.88 1017.61 1018.52
1005.74 1005.26 1003.48 1001.57 1000.72 1000.50 1000.32 1000.03 998.84 998.39 997.99 997.98 997.95 998.23 998.72 999.48 1000.40 1001.28 1001.84 1002.61 1003.70 1004.34 1005.40 1006.34 1007.03 1007.26 1007.99 1008.98 1009.55 1010.13 1010.89 1011.64 1012.22 1012.58 1013.01 1013.47 1014.01 1014.72 1015.46 1016.21 1016.83 1017.77 1018.52 1019.43
1004.55 1003.36 1002.72 1001.77 1000.71 1000.34 1000.06 999.65 999.26 998.76 998.13 998.07 998.53 998.52 999.74 1000.54 1001.30 1002.28 1003.18 1004.08 1004.77 1005.40 1006.47 1007.41 1007.97 1008.51 1008.99 1009.66 1010.39 1011.05 1012.03 1012.96 1013.50 1013.91 1014.38 1014.90 1015.45 1015.94 1016.52 1017.20 1017.89 1018.58 1019.20 1019.88
1003.13 1002.28 1001.76 1000.66 1000.28 1000.00 999.93 999.80 1000.16 999.42 998.50 998.51 999.23 999.66 1000.25 1001.47 1002.68 1003.62 1004.38 1005.31 1006.13 1006.60 1007.51 1008.65 1009.17 1009.66 1010.27 1010.64 1010.83 1011.74 1012.74 1013.73 1014.38 1014.92 1015.49 1016.21 1016.96 1017.49 1017.79 1018.33 1018.40 1018.95 1019.61 1020.12
1002.78 1001.87 1001.88 1000.68 1000.00 999.74 999.77 999.81 999.76 1000.00 999.53 999.15 1000.22 1001.16 1001.72 1003.30 1004.34 1005.27 1006.33 1007.29 1007.82 1008.22 1009.00 1010.05 1010.53 1011.36 1011.63 1012.04 1012.22 1012.86 1014.11 1015.24 1015.96 1016.44 1017.00 1017.39 1017.94 1018.64 1019.12 1019.37 1019.56 1019.80 1020.01 1020.33
1002.40 1002.34 1002.18 1000.87 1000.20 1000.04 1000.29 1000.96 1000.77 1000.59 1000.18 1000.21 1001.71 1002.83 1003.07 1004.32 1006.28 1007.59 1007.92 1009.19 1009.94 1010.75 1011.40 1011.26 1012.33 1012.88 1013.56 1013.92 1013.94 1014.64 1015.63 1016.58 1017.17 1017.71 1018.28 1018.67 1019.03 1019.23 1019.68 1020.15 1020.19 1020.36 1020.56 1020.80
1002.49 1002.59 1001.94 1000.99 1000.65 1000.60 1000.59 1001.50 1002.96 1002.69 1002.45 1002.68 1003.56 1004.49 1005.70 1006.13 1007.33 1008.84 1010.24 1011.26 1011.95 1012.38 1012.91 1013.63 1013.85 1014.69 1015.42 1015.49 1015.61 1016.29 1017.07 1017.74 1018.40 1018.96 1019.33 1019.63 1019.92 1020.10 1020.32 1020.58 1020.70 1020.82 1020.94 1021.07
1002.16 1002.26 1001.62 1001.36 1001.52 1002.09 1002.56 1003.23 1004.02 1004.94 1005.14 1005.33 1005.96 1006.41 1008.16 1008.40 1009.72 1011.14 1012.43 1013.25 1013.48 1013.82 1014.68 1015.10 1015.65 1016.59 1016.77 1016.81 1017.27 1018.01 1018.58 1019.23 1019.69 1020.06 1020.37 1020.61 1020.82 1021.06 1021.29 1021.46 1021.58 1021.69 1021.64 1021.71
1002.39 1002.13 1001.68 1002.04 1002.67 1003.47 1004.12 1004.86 1005.73 1006.57 1006.97 1007.67 1008.26 1009.22 1010.28 1010.89 1011.94 1013.10 1014.16 1014.68 1014.72 1016.06 1016.80 1016.89 1017.26 1017.98 1018.13 1018.48 1018.91 1019.41 1019.91 1020.36 1020.69 1021.04 1021.32 1021.60 1021.94 1022.19 1022.41 1022.54 1022.59 1022.66 1022.76 1022.95
1003.00 1003.24 1002.77 1003.37 1004.11 1005.40 1006.00 1006.33 1007.14 1008.21 1008.81 1009.41 1010.31 1011.23 1011.99 1012.80 1013.89 1015.06 1016.14 1016.90 1017.31 1017.93 1018.37 1018.59 1019.11 1019.43 1019.70 1019.99 1020.24 1020.73 1021.07 1021.48 1021.84 1022.13 1022.51 1022.92 1023.22 1023.40 1023.55 1023.65 1023.74 1023.79 1023.86 1023.83
1003.65 1003.38 1003.44 1004.13 1005.69 1006.76 1007.61 1008.19 1009.11 1009.85 1010.51 1011.25 1012.01 1012.82 1013.82 1014.74 1015.80 1016.91 1017.83 1018.43 1018.80 1019.37 1020.05 1020.48 1020.65 1020.82 1021.11 1021.40 1021.57 1021.96 1022.31 1022.77 1023.13 1023.48 1023.89 1024.16 1024.34 1024.44 1024.63 1024.71 1024.80 1024.85 1024.83 1024.78
1005.03 1004.90 1004.99 1005.87 1006.96 1007.84 1008.65 1009.68 1010.82 1011.45 1012.09 1012.85 1013.27 1014.18 1015.52 1016.64 1017.58 1018.37 1019.11 1019.60 1020.27 1020.86 1021.94 1021.92 1022.02 1022.15 1022.44 1022.80 1022.94 1023.31 1023.69 1024.08 1024.47 1024.90 1025.19 1025.53 1025.75 1025.86 1025.99 1026.07 1026.05 1026.01 1025.81 1025.73
1006.45 1006.66 1006.90 1007.45 1008.56 1009.20 1009.89 1011.02 1011.82 1012.74 1013.48 1014.11 1014.93 1015.49 1016.73 1018.16 1018.95 1019.63 1020.28 1020.95 1021.91 1022.47 1022.99 1023.21 1023.33 1023.53 1023.89 1024.12 1024.31 1024.73 1025.15 1025.48 1025.84 1026.36 1026.72 1027.01 1027.26 1027.41 1027.43 1027.31 1027.23 1027.13 1026.96 1026.72
1008.52 1008.28 1009.04 1008.74 1009.55 1010.54 1011.45 1012.26 1012.72 1014.01 1015.00 1015.57 1016.49 1017.31 1018.07 1019.25 1020.30 1020.92 1021.24 1022.10 1023.58 1023.82 1024.10 1024.30 1024.47 1024.88 1025.23 1025.47 1025.74 1026.15 1026.54 1026.94 1027.32 1027.79 1028.33 1028.76 1028.87 1028.91 1028.93 1028.70 1028.40 1028.11 1027.90 1027.72
1009.62 1008.85 1009.74 1010.18 1010.77 1011.59 1012.73 1013.81 1014.58 1015.43 1016.70 1017.25 1018.30 1018.92 1019.49 1020.54 1021.48 1022.32 1023.13 1023.56 1024.56 1024.79 1025.09 1025.51 1025.96 1026.26 1026.52 1026.76 1027.21 1027.64 1028.01 1028.34 1028.70 1028.91 1029.28 1029.60 1030.08 1030.26 1030.17 1029.58 1029.36 1029.01 1028.71 1028.44
1010.85 1011.59 1011.80 1012.28 1012.61 1013.20 1014.33 1015.56 1016.42 1017.17 1018.23 1018.95 1019.57 1020.21 1020.77 1021.72 1022.62 1023.26 1024.17 1025.34 1025.54 1025.90 1026.27 1026.89 1027.23 1027.51 1027.94 1028.36 1028.71 1028.98 1029.22 1029.45 1029.80 1030.11 1030.35 1030.42 1030.45 1030.48 1030.46 1030.38 1030.04 1029.71 1029.37 1028.97
1012.41 1013.04 1013.42 1013.92 1014.08 1014.61 1015.82 1017.40 1017.97 1018.93 1019.77 1020.71 1021.39 1022.00 1022.38 1023.06 1024.16 1025.03 1025.66 1026.27 1026.65 1027.00 1027.62 1028.16 1028.59 1028.97 1029.32 1029.51 1029.67 1029.92 1030.25 1030.52 1030.76 1030.92 1030.96 1030.96 1031.06 1031.09 1031.01 1030.83 1030.53 1030.21 1029.84 1029.36
1013.86 1014.63 1014.93 1015.10 1015.64 1016.84 1017.74 1018.66 1019.29 1020.44 1021.25 1022.04 1022.78 1023.35 1023.92 1024.47 1024.67 1026.21 1026.78 1027.44 1027.96 1028.55 1029.22 1029.61 1029.72 1029.94 1030.32 1030.52 1030.71 1030.89 1031.11 1031.31 1031.49 1031.55 1031.63 1031.63 1031.58 1031.56 1031.49 1031.25 1030.89 1030.52 1030.15 1029.64
1015.65 1016.20 1016.47 1016.86 1017.58 1018.46 1019.19 1019.92 1020.69 1021.89 1022.57 1023.33 1024.29 1024.92 1025.58 1026.22 1026.75 1027.39 1028.14 1028.85 1029.45 1029.89 1030.34 1030.72 1030.87 1031.13 1031.45 1031.50 1031.64 1031.78 1032.00 1031.92 1031.91 1031.98 1032.04 1032.00 1031.99 1032.01 1031.84 1031.42 1031.02 1030.53 1030.04 1029.50
1017.48 1017.83 1018.27 1018.86 1019.60 1020.26 1020.84 1021.46 1022.31 1023.39 1024.06 1024.61 1025.47 1026.47 1027.10 1027.70 1028.29 1028.98 1029.65 1030.19 1030.58 1030.97 1031.39 1031.94 1031.70 1031.37 1031.62 1032.05 1032.36 1031.93 1031.85 1031.96 1031.83 1031.84 1032.21 1032.09 1031.86 1031.80 1031.51 1031.10 1030.70 1030.24 1029.68 1029.16
Thickness
5584 5597 5603 5607 5610 5616 5616 5619 5614 5628 5634 5655 5662 5663 5668 5674 5675 5673 5670 5668 5667 5668 5668 5666 5661 5661 5660 5659 5655 5651 5644 5636 5632 5624 5618 5611 5605 5599 5596 5592 5587 5581 5574 5565
5574 5592 5600 5600 5605 5612 5615 5614 5626 5629 5641 5660 5666 5665 5664 5669 5668 5670 5672 5674 5669 5671 5670 5667 5662 5658 5651 5646 5639 5636 5632 5623 5617 5612 5606 5601 5594 5588 5584 5579 5575 5569 5560 5553
5559 5578 5581 5566 5602 5613 5618 5610 5612 5613 5640 5660 5655 5657 5660 5666 5668 5669 5671 5672 5671 5671 5671 5666 5655 5648 5641 5637 5634 5626 5619 5613 5608 5602 5598 5594 5589 5581 5576 5570 5564 5557 5549 5542
5530 5553 5547 5596 5607 5609 5607 5615 5618 5625 5640 5651 5658 5664 5665 5668 5670 5669 5668 5671 5671 5665 5654 5648 5644 5635 5628 5624 5619 5615 5609 5602 5596 5592 5586 5581 5575 5569 5561 5555 5550 5543 5536 5528
5530 5544 5566 5586 5599 5597 5590 5604 5622 5622 5641 5650 5657 5659 5661 5671 5672 5676 5673 5673 5664 5654 5645 5641 5633 5627 5621 5615 5609 5604 5598 5591 5585 5580 5573 5567 5560 5554 5548 5542 5535 5528 5519 5509
5511 5536 5541 5575 5601 5611 5604 5584 5627 5634 5638 5637 5644 5632 5648 5669 5667 5667 5665 5660 5651 5643 5637 5630 5622 5619 5613 5606 5599 5592 5585 5578 5572 5566 5560 5552 5545 5540 5535 5528 5519 5508 5495 5484
5518 5527 5543 5577 5592 5598 5563 5581 5626 5633 5633 5635 5632 5645 5659 5658 5659 5655 5654 5646 5639 5633 5629 5619 5611 5607 5599 5591 5583 5576 5567 5561 5555 5549 5543 5536 5529 5523 5514 5505 5494 5482 5472 5462
5516 5524 5532 5571 5584 5580 5581 5601 5612 5620 5627 5626 5637 5647 5654 5649 5643 5639 5634 5629 5626 5621 5610 5601 5596 5591 5585 5576 5567 5561 5553 5544 5537 5531 5525 5517 5509 5500 5492 5483 5472 5461 5452 5440
5520 5513 5539 5561 5575 5577 5579 5582 5599 5608 5619 5624 5629 5632 5632 5630 5626 5620 5619 5614 5606 5602 5593 5584 5579 5576 5566 5555 5548 5541 5533 5524 5516 5510 5504 5497 5489 5480 5470 5461 5453 5441 5431 5419
5517 5534 5539 5552 5565 5572 5577 5584 5590 5599 5612 5616 5615 5620 5614 5614 5611 5604 5598 5592 5588 5584 5575 5565 5558 5552 5545 5537 5529 5521 5510 5501 5495 5488 5480 5472 5465 5457 5450 5440 5430 5421 5412 5402
5526 5534 5538 5553 5559 5567 5572 5577 5576 5589 5603 5606 5602 5605 5604 5597 5589 5583 5578 5573 5567 5562 5554 5543 5537 5531 5524 5517 5513 5503 5493 5482 5473 5465 5457 5447 5438 5431 5424 5416 5412 5403 5392 5383
5516 5533 5531 5547 5559 5567 5570 5572 5577 5580 5592 5595 5589 5583 5582 5571 5566 5559 5550 5542 5538 5535 5527 5518 5514 5505 5501 5495 5491 5483 5470 5457 5448 5440 5433 5428 5419 5408 5400 5393 5387 5380 5373 5364
5521 5522 5526 5545 5557 5562 5561 5557 5560 5565 5576 5583 5571 5564 5564 5548 5535 5525 5524 5515 5509 5503 5497 5496 5485 5479 5471 5466 5463 5455 5445 5436 5428 5420 5411 5405 5398 5391 5382 5372 5365 5358 5350 5341
5510 5513 5525 5543 5549 5553 5552 5542 5530 5536 5541 5544 5540 5534 5527 5524 5515 5505 5494 5487 5482 5478 5472 5466 5462 5453 5444 5441 5437 5429 5420 5411 5403 5395 5388 5381 5375 5368 5361 5353 5345 5338 5328 5321
5502 5507 5525 5534 5533 5531 5526 5522 5512 5503 5504 5507 5508 5507 5495 5494 5484 5475 5466 5461 5460 5456 5448 5442 5435 5425 5422 5419 5413 5404 5395 5386 5378 5372 5365 5358 5351 5344 5336 5328 5321 5313 5305 5296
5489 5502 5517 5520 5517 5513 5508 5501 5493 5485 5485 5481 5478 5474 5467 5464 5457 5449 5442 5438 5437 5425 5417 5415 5411 5403 5400 5393 5386 5378 5370 5363 5357 5350 5342 5335 5327 5319 5311 5303 5296 5287 5278 5268
5488 5491 5496 5499 5497 5487 5483 5482 5475 5466 5463 5460 5455 5450 5445 5439 5430 5421 5413 5407 5404 5398 5394 5391 5385 5381 5375 5370 5364 5355 5349 5341 5334 5327 5318 5309 5300 5292 5284 5275 5267 5258 5248 5238
5468 5479 5483 5479 5466 5461 5459 5459 5453 5449 5444 5440 5435 5430 5422 5415 5407 5399 5393 5387 5383 5377 5371 5366 5362 5358 5352 5346 5341 5334 5326 5318 5309 5301 5291 5283 5276 5268 5258 5250 5241 5231 5219 5209
5450 5454 5457 5455 5451 5448 5444 5437 5430 5427 5424 5420 5418 5411 5401 5393 5387 5381 5375 5370 5362 5356 5345 5343 5340 5335 5329 5323 5318 5310 5301 5293 5285 5275 5267 5257 5248 5239 5230 5220 5209 5198 5187 5175
5432 5434 5437 5437 5432 5430 5427 5421 5416 5411 5407 5403 5397 5394 5383 5372 5366 5361 5354 5348 5339 5332 5326 5321 5318 5313 5307 5300 5294 5285 5276 5268 5260 5249 5239 5230 5218 5208 5197 5188 5176 5164 5151 5138
5410 5413 5412 5419 5416 5412 5408 5404 5403 5394 5387 5382 5375 5368 5362 5354 5346 5340 5336 5327 5314 5311 5306 5302 5298 5291 5284 5277 5270 5261 5252 5243 5233 5221 5210 5197 5187 5177 5164 5151 5140 5127 5115 5102
5395 5401 5398 5401 5400 5396 5390 5384 5379 5373 5363 5358 5350 5346 5341 5332 5324 5316 5309 5306 5297 5293 5289 5282 5275 5268 5261 5255 5246 5236 5227 5216 5205 5195 5183 5171 5157 5143 5130 5119 5107 5094 5082 5070
5379 5377 5378 5377 5378 5375 5368 5361 5356 5351 5343 5338 5333 5328 5324 5315 5307 5300 5292 5283 5280 5274 5268 5260 5252 5246 5238 5229 5219 5209 5200 5190 5179 5166 5153 5140 5127 5114 5102 5089 5078 5066 5053 5041
5362 5360 5360 5359 5360 5358 5350 5338 5335 5327 5321 5314 5308 5303 5300 5293 5283 5277 5271 5265 5260 5254 5246 5237 5229 5221 5213 5204 5195 5185 5174 5163 5150 5137 5126 5115 5101 5089 5077 5064 5052 5040 5029 5018
5346 5341 5342 5343 5341 5333 5326 5320 5316 5307 5301 5295 5289 5284 5279 5274 5272 5259 5253 5245 5239 5231 5221 5212 5205 5198 5189 5180 5171 5161 5149 5137 5124 5113 5101 5090 5079 5066 5054 5043 5032 5021 5010 5000
5326 5323 5322 5322 5317 5310 5306 5301 5296 5287 5282 5276 5268 5263 5257 5251 5246 5239 5231 5223 5214 5206 5198 5189 5182 5175 5167 5158 5148 5136 5125 5114 5104 5094 5083 5072 5060 5048 5037 5027 5017 5007 4998 4989
5303 5302 5300 5297 5293 5288 5285 5281 5275 5267 5262 5258 5250 5242 5236 5229 5223 5215 5206 5198 5190 5183 5175 5168 5162 5154 5145 5135 5125 5115 5105 5095 5088 5077 5066 5055 5044 5035 5025 5016 5007 4999 4992 4986